KOREASAT 5A

Last updated on Sun Apr 12 2026 00:02:54 GMT+0000 (Coordinated Universal Time)

1 42984U 17067A 26101.49697406 -.00000357 00000+0 00000+0 0 9997 2 42984 0.0178 272.2153 0001239 102.1376 117.4203 1.00274170 30869
UTC large
Height (km)
Speed (km/s)
/
Latitude / Longitude
Inclination (degrees)
Orbital Period (minutes)
Azimuth
Elevation
Range (km)
Doppler Factor

Next 0 passes for location: London (51.5072 / 0.1276)

Sorry there are no passes over London.
KOREASAT 5A